Time,TemperatureF,DewpointF,PressureIn,WindDirection,WindDirectionDegrees,WindSpeedMPH,WindSpeedGustMPH,Humidity,HourlyPrecipIn,Conditions,Clouds,dailyrainin,SolarRadiationWatts/m^2,SoftwareType,DateUTC
2013-01-14 00:00:00,60.5,56.3,30.09,South,191,1.0,13.0,86,0.00,,---,0.00,0.00,VWS V14.01,2013-01-14 05:00:00,
2013-01-14 00:02:00,60.5,56.3,30.09,SSE,168,6.0,13.0,86,0.00,,---,0.00,0.00,VWS V14.01,2013-01-14 05:02:00,
2013-01-14 00:04:00,60.5,56.3,30.09,SSE,159,1.0,5.0,86,0.00,,---,0.00,0.00,VWS V14.01,2013-01-14 05:04:00,
2013-01-14 00:09:00,60.5,56.3,30.09,SSE,167,0.0,7.0,86,0.00,,---,0.00,0.00,VWS V14.01,2013-01-14 05:09:00,
2013-01-14 00:14:00,60.5,56.3,30.09,South,182,3.0,7.0,86,0.00,,---,0.00,0.00,VWS V14.01,2013-01-14 05:14:00,
2013-01-14 00:19:00,60.5,56.6,30.09,South,170,4.0,8.0,87,0.00,,---,0.00,0.00,VWS V14.01,2013-01-14 05:19:00,
2013-01-14 00:24:00,60.6,56.7,30.10,SSE,158,0.0,8.0,87,0.00,,---,0.00,0.00,VWS V14.01,2013-01-14 05:24:00,
2013-01-14 00:29:00,60.5,56.6,30.09,SSW,192,0.0,9.0,87,0.00,,---,0.00,0.00,VWS V14.01,2013-01-14 05:29:00,
2013-01-14 00:30:00,60.5,56.6,30.09,South,184,3.0,9.0,87,0.00,,---,0.00,0.00,VWS V14.01,2013-01-14 05:30:00,
2013-01-14 00:34:00,60.5,56.6,30.09,SSE,157,0.0,3.0,87,0.00,,---,0.00,0.00,VWS V14.01,2013-01-14 05:34:00,
2013-01-14 00:39:00,60.5,56.9,30.10,South,178,0.0,4.0,88,0.00,,---,0.00,0.00,VWS V14.01,2013-01-14 05:39:00,
2013-01-14 00:44:00,60.4,56.8,30.09,SSW,207,0.0,6.0,88,0.00,,---,0.00,0.00,VWS V14.01,2013-01-14 05:44:00,
2013-01-14 00:49:00,60.2,57.0,30.09,SSW,199,0.0,10.0,89,0.00,,---,0.00,0.00,VWS V14.01,2013-01-14 05:49:00,
2013-01-14 00:55:00,60.1,56.8,30.10,South,178,4.0,10.0,89,0.00,,---,0.00,0.00,VWS V14.01,2013-01-14 05:55:00,
2013-01-14 01:00:00,59.9,56.7,30.09,South,173,3.0,10.0,89,0.00,,---,0.00,0.00,VWS V14.01,2013-01-14 06:00:00,
2013-01-14 01:05:00,59.8,56.6,30.10,SSW,196,0.0,3.0,89,0.00,,---,0.00,0.00,VWS V14.01,2013-01-14 06:05:00,
2013-01-14 01:10:00,59.8,56.9,30.09,South,178,3.0,5.0,90,0.00,,---,0.00,0.00,VWS V14.01,2013-01-14 06:10:00,
2013-01-14 01:15:00,59.7,57.4,30.09,SSE,150,5.0,8.0,92,0.00,,---,0.00,0.00,VWS V14.01,2013-01-14 06:15:00,
2013-01-14 01:20:00,59.7,56.8,30.09,South,181,0.0,8.0,90,0.00,,---,0.00,0.00,VWS V14.01,2013-01-14 06:20:00,
2013-01-14 01:25:00,59.7,56.8,30.09,SW,215,4.0,8.0,90,0.00,,---,0.00,0.00,VWS V14.01,2013-01-14 06:25:00,
2013-01-14 01:30:00,59.7,57.4,30.09,South,182,0.0,8.0,92,0.00,,---,0.00,0.00,VWS V14.01,2013-01-14 06:30:00,
2013-01-14 01:35:00,59.8,56.9,30.09,South,191,3.0,6.0,90,0.00,,---,0.00,0.00,VWS V14.01,2013-01-14 06:35:00,
2013-01-14 01:40:00,59.8,56.9,30.09,South,175,0.0,6.0,90,0.01,,---,0.01,0.00,VWS V14.01,2013-01-14 06:40:00,
2013-01-14 01:45:00,59.8,56.9,30.10,South,175,0.0,6.0,90,0.01,,---,0.01,0.00,VWS V14.01,2013-01-14 06:45:00,
2013-01-14 01:50:00,59.8,56.9,30.10,SSW,211,0.0,6.0,90,0.01,,---,0.01,0.00,VWS V14.01,2013-01-14 06:50:00,
2013-01-14 01:55:00,59.8,56.9,30.10,SW,220,0.0,6.0,90,0.01,,---,0.01,0.00,VWS V14.01,2013-01-14 06:55:00,
2013-01-14 02:00:00,59.6,57.0,30.10,WNW,288,2.0,6.0,91,0.01,,---,0.01,0.00,VWS V14.01,2013-01-14 07:00:00,
2013-01-14 02:05:00,59.4,56.8,30.11,West,279,0.0,5.0,91,0.04,,---,0.04,0.00,VWS V14.01,2013-01-14 07:05:00,
2013-01-14 02:10:00,59.0,56.7,30.12,WNW,300,0.0,5.0,92,0.08,,---,0.08,0.00,VWS V14.01,2013-01-14 07:10:00,
2013-01-14 02:15:00,58.8,56.5,30.12,WNW,298,2.0,5.0,92,0.13,,---,0.13,0.00,VWS V14.01,2013-01-14 07:15:00,
2013-01-14 02:21:00,58.5,56.5,30.12,WNW,297,0.0,5.0,93,0.18,,---,0.18,0.00,VWS V14.01,2013-01-14 07:21:00,
2013-01-14 02:26:00,58.3,56.3,30.11,WNW,298,0.0,5.0,93,0.21,,---,0.21,0.00,VWS V14.01,2013-01-14 07:26:00,
2013-01-14 02:30:00,58.0,56.0,30.10,WNW,298,0.0,5.0,93,0.23,,---,0.23,0.00,VWS V14.01,2013-01-14 07:30:00,
2013-01-14 02:31:00,58.1,56.1,30.10,WNW,298,0.0,5.0,93,0.22,,---,0.22,0.00,VWS V14.01,2013-01-14 07:31:00,
2013-01-14 02:36:00,57.9,55.9,30.11,WNW,298,0.0,1.0,93,0.23,,---,0.23,0.00,VWS V14.01,2013-01-14 07:36:00,
2013-01-14 02:41:00,57.8,55.8,30.11,WNW,297,0.0,1.0,93,0.23,,---,0.23,0.00,VWS V14.01,2013-01-14 07:41:00,
2013-01-14 02:46:00,57.7,55.7,30.11,WNW,297,0.0,1.0,93,0.23,,---,0.23,0.00,VWS V14.01,2013-01-14 07:46:00,
2013-01-14 02:51:00,57.6,55.9,30.11,WNW,297,0.0,1.0,94,0.24,,---,0.24,0.00,VWS V14.01,2013-01-14 07:51:00,
2013-01-14 02:56:00,57.5,55.8,30.11,WNW,297,0.0,1.0,94,0.24,,---,0.24,0.00,VWS V14.01,2013-01-14 07:56:00,
2013-01-14 03:00:00,57.4,55.7,30.10,WNW,297,0.0,1.0,94,0.24,,---,0.24,0.00,VWS V14.01,2013-01-14 08:00:00,
2013-01-14 03:01:00,57.4,55.7,30.10,WNW,297,0.0,1.0,94,0.24,,---,0.24,0.00,VWS V14.01,2013-01-14 08:01:00,
2013-01-14 03:06:00,57.2,55.5,30.10,WNW,298,0.0,0.0,94,0.22,,---,0.24,0.00,VWS V14.01,2013-01-14 08:06:00,
2013-01-14 03:11:00,57.1,55.4,30.10,WNW,297,0.0,0.0,94,0.22,,---,0.24,0.00,VWS V14.01,2013-01-14 08:11:00,
2013-01-14 03:16:00,57.0,55.3,30.09,SSE,159,0.0,4.0,94,0.22,,---,0.24,0.00,VWS V14.01,2013-01-14 08:16:00,
2013-01-14 03:21:00,56.9,55.5,30.09,SE,136,1.0,4.0,95,0.22,,---,0.24,0.00,VWS V14.01,2013-01-14 08:21:00,
2013-01-14 03:27:00,56.9,55.5,30.09,SE,136,0.0,4.0,95,0.22,,---,0.24,0.00,VWS V14.01,2013-01-14 08:27:00,
2013-01-14 03:30:00,56.8,55.4,30.08,ESE,112,0.0,4.0,95,0.23,,---,0.25,0.00,VWS V14.01,2013-01-14 08:30:00,
2013-01-14 03:31:00,56.9,55.5,30.08,ESE,112,0.0,4.0,95,0.23,,---,0.25,0.00,VWS V14.01,2013-01-14 08:31:00,
2013-01-14 03:37:00,56.8,55.4,30.08,ESE,112,0.0,3.0,95,0.02,,---,0.25,0.00,VWS V14.01,2013-01-14 08:37:00,
2013-01-14 03:42:00,56.8,55.4,30.08,SSE,152,1.0,4.0,95,0.02,,---,0.25,0.00,VWS V14.01,2013-01-14 08:42:00,
2013-01-14 03:47:00,56.8,55.4,30.08,SSE,153,1.0,4.0,95,0.02,,---,0.25,0.00,VWS V14.01,2013-01-14 08:47:00,
2013-01-14 03:52:00,56.7,55.3,30.08,SSE,153,0.0,4.0,95,0.02,,---,0.25,0.00,VWS V14.01,2013-01-14 08:52:00,
2013-01-14 03:57:00,56.7,55.3,30.08,SSE,162,0.0,4.0,95,0.02,,---,0.25,0.00,VWS V14.01,2013-01-14 08:57:00,
2013-01-14 04:00:00,56.7,55.3,30.08,SSE,155,1.0,4.0,95,0.02,,---,0.25,0.00,VWS V14.01,2013-01-14 09:00:00,
2013-01-14 04:02:00,56.7,55.3,30.08,SSE,155,1.0,4.0,95,0.02,,---,0.25,0.00,VWS V14.01,2013-01-14 09:02:00,
2013-01-14 04:07:00,56.7,55.3,30.09,South,179,0.0,4.0,95,0.01,,---,0.25,0.00,VWS V14.01,2013-01-14 09:07:00,
2013-01-14 04:12:00,56.7,55.3,30.09,South,169,2.0,6.0,95,0.01,,---,0.25,0.00,VWS V14.01,2013-01-14 09:12:00,
2013-01-14 04:17:00,56.8,55.4,30.08,SSE,153,0.0,6.0,95,0.01,,---,0.25,0.00,VWS V14.01,2013-01-14 09:17:00,
2013-01-14 04:22:00,56.8,55.4,30.08,South,182,0.0,6.0,95,0.02,,---,0.26,0.00,VWS V14.01,2013-01-14 09:22:00,
2013-01-14 04:27:00,56.8,55.4,30.08,SSE,148,3.0,6.0,95,0.02,,---,0.26,0.00,VWS V14.01,2013-01-14 09:27:00,
2013-01-14 04:30:00,56.8,55.4,30.08,SSE,161,1.0,6.0,95,0.02,,---,0.26,0.00,VWS V14.01,2013-01-14 09:30:00,
2013-01-14 04:32:00,56.8,55.4,30.08,SSE,150,1.0,2.0,95,0.01,,---,0.26,0.00,VWS V14.01,2013-01-14 09:32:00,
2013-01-14 04:37:00,56.8,55.7,30.08,South,190,0.0,5.0,96,0.01,,---,0.26,0.00,VWS V14.01,2013-01-14 09:37:00,
2013-01-14 04:42:00,56.8,55.7,30.08,SE,144,0.0,5.0,96,0.01,,---,0.26,0.00,VWS V14.01,2013-01-14 09:42:00,
2013-01-14 04:47:00,56.8,55.7,30.08,SSW,205,0.0,5.0,96,0.01,,---,0.26,0.00,VWS V14.01,2013-01-14 09:47:00,
2013-01-14 04:52:00,56.8,55.7,30.08,ESE,115,0.0,6.0,96,0.01,,---,0.26,0.00,VWS V14.01,2013-01-14 09:52:00,
2013-01-14 04:58:00,56.8,55.7,30.07,South,175,0.0,6.0,96,0.01,,---,0.26,0.00,VWS V14.01,2013-01-14 09:58:00,
2013-01-14 05:00:00,56.8,55.7,30.07,ESE,123,0.0,6.0,96,0.01,,---,0.26,0.00,VWS V14.01,2013-01-14 10:00:00,
2013-01-14 05:03:00,56.9,55.8,30.07,ESE,123,0.0,0.0,96,0.01,,---,0.26,0.00,VWS V14.01,2013-01-14 10:03:00,
2013-01-14 05:08:00,56.9,55.8,30.07,SSW,208,0.0,6.0,96,0.01,,---,0.26,0.00,VWS V14.01,2013-01-14 10:08:00,
2013-01-14 05:13:00,57.0,55.9,30.07,SW,215,0.0,6.0,96,0.01,,---,0.26,0.00,VWS V14.01,2013-01-14 10:13:00,
2013-01-14 05:18:00,57.1,56.0,30.07,SSW,193,0.0,7.0,96,0.01,,---,0.26,0.00,VWS V14.01,2013-01-14 10:18:00,
2013-01-14 05:23:00,57.2,56.1,30.07,SSE,165,0.0,7.0,96,0.01,,---,0.26,0.00,VWS V14.01,2013-01-14 10:23:00,
2013-01-14 05:28:00,57.3,56.2,30.07,SSE,150,4.0,7.0,96,0.01,,---,0.26,0.00,VWS V14.01,2013-01-14 10:28:00,
2013-01-14 05:30:00,57.4,56.3,30.06,SSE,168,2.0,9.0,96,0.01,,---,0.26,0.00,VWS V14.01,2013-01-14 10:30:00,
2013-01-14 05:33:00,57.4,56.3,30.07,SSE,161,6.0,10.0,96,0.00,,---,0.26,0.00,VWS V14.01,2013-01-14 10:33:00,
2013-01-14 05:38:00,57.5,56.4,30.07,SSW,205,0.0,10.0,96,0.00,,---,0.26,0.00,VWS V14.01,2013-01-14 10:38:00,
2013-01-14 05:43:00,57.6,56.5,30.07,SSW,205,0.0,10.0,96,0.00,,---,0.26,0.00,VWS V14.01,2013-01-14 10:43:00,
2013-01-14 05:48:00,57.6,56.5,30.07,SW,225,0.0,14.0,96,0.00,,---,0.26,0.00,VWS V14.01,2013-01-14 10:48:00,
2013-01-14 05:53:00,57.7,56.6,30.07,SSW,213,3.0,14.0,96,0.00,,---,0.26,0.00,VWS V14.01,2013-01-14 10:53:00,
2013-01-14 05:58:00,57.7,56.6,30.08,SSW,205,0.0,14.0,96,0.00,,---,0.26,0.00,VWS V14.01,2013-01-14 10:58:00,
2013-01-14 06:00:00,57.7,56.6,30.08,SE,140,5.0,14.0,96,0.00,,---,0.26,0.00,VWS V14.01,2013-01-14 11:00:00,
2013-01-14 06:03:00,57.7,56.6,30.08,SW,221,1.0,7.0,96,0.00,,---,0.26,0.00,VWS V14.01,2013-01-14 11:03:00,
2013-01-14 06:08:00,57.7,56.6,30.08,SSW,202,0.0,7.0,96,0.00,,---,0.26,0.00,VWS V14.01,2013-01-14 11:08:00,
2013-01-14 06:13:00,57.8,56.7,30.09,SW,217,0.0,7.0,96,0.00,,---,0.26,0.00,VWS V14.01,2013-01-14 11:13:00,
2013-01-14 06:18:00,57.8,56.7,30.09,SW,217,0.0,7.0,96,0.00,,---,0.26,0.00,VWS V14.01,2013-01-14 11:18:00,
2013-01-14 06:23:00,57.7,56.6,30.08,SW,217,0.0,7.0,96,0.00,,---,0.26,0.00,VWS V14.01,2013-01-14 11:23:00,
2013-01-14 06:28:00,57.8,56.7,30.09,SW,217,0.0,7.0,96,0.00,,---,0.26,0.00,VWS V14.01,2013-01-14 11:28:00,
2013-01-14 06:30:00,57.8,56.7,30.09,SW,217,0.0,7.0,96,0.00,,---,0.26,0.00,VWS V14.01,2013-01-14 11:30:00,
2013-01-14 06:33:00,57.8,56.7,30.09,SSW,212,0.0,2.0,96,0.00,,---,0.26,0.00,VWS V14.01,2013-01-14 11:33:00,
2013-01-14 06:38:00,57.7,56.6,30.09,South,188,0.0,4.0,96,0.00,,---,0.26,0.00,VWS V14.01,2013-01-14 11:38:00,
2013-01-14 06:43:00,57.7,56.6,30.09,South,188,0.0,4.0,96,0.00,,---,0.26,0.00,VWS V14.01,2013-01-14 11:43:00,
2013-01-14 06:49:00,57.7,56.6,30.09,South,188,1.0,4.0,96,0.00,,---,0.26,0.00,VWS V14.01,2013-01-14 11:49:00,
2013-01-14 06:54:00,57.7,56.6,30.09,South,188,0.0,4.0,96,0.00,,---,0.26,0.00,VWS V14.01,2013-01-14 11:54:00,
2013-01-14 06:59:00,57.7,56.6,30.10,South,188,0.0,4.0,96,0.00,,---,0.26,0.00,VWS V14.01,2013-01-14 11:59:00,
2013-01-14 07:00:00,57.7,56.6,30.10,South,188,0.0,4.0,96,0.00,,---,0.26,0.00,VWS V14.01,2013-01-14 12:00:00,
2013-01-14 07:04:00,57.7,56.6,30.10,South,188,0.0,1.0,96,0.00,,---,0.26,0.00,VWS V14.01,2013-01-14 12:04:00,
2013-01-14 07:09:00,57.7,56.6,30.10,South,188,0.0,1.0,96,0.00,,---,0.26,0.00,VWS V14.01,2013-01-14 12:09:00,
2013-01-14 07:14:00,57.7,56.6,30.09,South,188,0.0,1.0,96,0.00,,---,0.26,0.00,VWS V14.01,2013-01-14 12:14:00,
2013-01-14 07:19:00,57.6,56.5,30.10,South,188,0.0,1.0,96,0.00,,---,0.26,0.00,VWS V14.01,2013-01-14 12:19:00,
2013-01-14 07:24:00,57.6,56.5,30.10,South,188,0.0,1.0,96,0.00,,---,0.26,0.00,VWS V14.01,2013-01-14 12:24:00,
2013-01-14 07:29:00,57.6,56.5,30.10,South,188,0.0,1.0,96,0.01,,---,0.27,0.00,VWS V14.01,2013-01-14 12:29:00,
2013-01-14 07:30:00,57.6,56.5,30.10,South,188,0.0,1.0,96,0.01,,---,0.27,0.00,VWS V14.01,2013-01-14 12:30:00,
2013-01-14 07:34:00,57.6,56.5,30.10,South,188,0.0,0.0,96,0.01,,---,0.27,0.00,VWS V14.01,2013-01-14 12:34:00,
2013-01-14 07:39:00,57.6,56.5,30.10,South,188,0.0,0.0,96,0.01,,---,0.27,5.00,VWS V14.01,2013-01-14 12:39:00,
2013-01-14 07:44:00,57.6,56.5,30.09,SSE,165,0.0,1.0,96,0.01,,---,0.27,12.00,VWS V14.01,2013-01-14 12:44:00,
2013-01-14 07:49:00,57.5,56.4,30.10,SSE,165,0.0,1.0,96,0.01,,---,0.27,12.00,VWS V14.01,2013-01-14 12:49:00,
2013-01-14 07:54:00,57.5,56.4,30.09,SSE,164,0.0,4.0,96,0.01,,---,0.27,12.00,VWS V14.01,2013-01-14 12:54:00,
2013-01-14 07:59:00,57.5,56.4,30.09,SSE,164,0.0,4.0,96,0.02,,---,0.28,9.00,VWS V14.01,2013-01-14 12:59:00,
2013-01-14 08:00:00,57.5,56.4,30.10,SSE,164,0.0,4.0,96,0.02,,---,0.28,9.00,VWS V14.01,2013-01-14 13:00:00,
2013-01-14 08:04:00,57.5,56.4,30.11,SSE,164,0.0,0.0,96,0.02,,---,0.28,11.00,VWS V14.01,2013-01-14 13:04:00,
2013-01-14 08:09:00,57.5,56.4,30.11,SSE,164,0.0,1.0,96,0.02,,---,0.28,12.00,VWS V14.01,2013-01-14 13:09:00,
2013-01-14 08:14:00,57.4,56.3,30.12,SSE,164,0.0,1.0,96,0.02,,---,0.28,11.00,VWS V14.01,2013-01-14 13:14:00,
2013-01-14 08:20:00,57.4,56.3,30.12,SSE,164,0.0,1.0,96,0.02,,---,0.28,9.00,VWS V14.01,2013-01-14 13:20:00,
2013-01-14 08:25:00,57.4,56.3,30.12,SSE,164,0.0,1.0,96,0.03,,---,0.29,7.00,VWS V14.01,2013-01-14 13:25:00,
2013-01-14 08:30:00,57.4,56.3,30.12,SSE,164,0.0,1.0,96,0.03,,---,0.29,9.00,VWS V14.01,2013-01-14 13:30:00,
2013-01-14 08:35:00,57.4,56.3,30.12,SSE,164,0.0,0.0,96,0.02,,---,0.29,14.00,VWS V14.01,2013-01-14 13:35:00,
2013-01-14 08:40:00,57.5,56.4,30.12,SSE,164,0.0,1.0,96,0.03,,---,0.30,23.00,VWS V14.01,2013-01-14 13:40:00,
2013-01-14 08:45:00,57.5,56.4,30.12,SSE,164,0.0,1.0,96,0.03,,---,0.30,23.00,VWS V14.01,2013-01-14 13:45:00,
2013-01-14 08:50:00,57.5,56.4,30.13,SSE,164,0.0,1.0,96,0.03,,---,0.30,26.00,VWS V14.01,2013-01-14 13:50:00,
2013-01-14 08:55:00,57.5,56.4,30.13,SSE,164,0.0,1.0,96,0.03,,---,0.30,19.00,VWS V14.01,2013-01-14 13:55:00,
2013-01-14 09:00:00,57.6,56.5,30.13,SSE,164,0.0,1.0,96,0.03,,---,0.30,25.00,VWS V14.01,2013-01-14 14:00:00,
2013-01-14 09:05:00,57.6,56.5,30.13,SSE,164,0.0,0.0,96,0.02,,---,0.30,19.00,VWS V14.01,2013-01-14 14:05:00,
2013-01-14 09:10:00,57.6,56.5,30.14,SSE,164,0.0,0.0,96,0.03,,---,0.31,21.00,VWS V14.01,2013-01-14 14:10:00,
2013-01-14 09:15:00,57.6,56.5,30.13,SSE,164,0.0,0.0,96,0.03,,---,0.31,25.00,VWS V14.01,2013-01-14 14:15:00,
2013-01-14 09:20:00,57.6,56.5,30.13,SSE,164,0.0,0.0,96,0.03,,---,0.31,33.00,VWS V14.01,2013-01-14 14:20:00,
2013-01-14 09:25:00,57.6,56.5,30.13,SSE,164,0.0,0.0,96,0.03,,---,0.31,28.00,VWS V14.01,2013-01-14 14:25:00,
2013-01-14 09:30:00,57.6,56.5,30.13,SSE,164,0.0,0.0,96,0.03,,---,0.31,12.00,VWS V14.01,2013-01-14 14:30:00,
2013-01-14 09:35:00,57.6,56.5,30.13,SSE,164,0.0,0.0,96,0.02,,---,0.31,12.00,VWS V14.01,2013-01-14 14:35:00,
2013-01-14 09:40:00,57.6,56.8,30.13,SSE,164,0.0,1.0,97,0.02,,---,0.31,11.00,VWS V14.01,2013-01-14 14:40:00,
2013-01-14 09:45:00,57.5,56.4,30.13,SSE,164,0.0,1.0,96,0.02,,---,0.31,9.00,VWS V14.01,2013-01-14 14:45:00,
2013-01-14 09:50:00,57.4,56.3,30.13,SSE,164,0.0,1.0,96,0.02,,---,0.31,12.00,VWS V14.01,2013-01-14 14:50:00,
2013-01-14 09:55:00,57.3,56.2,30.12,SSE,164,0.0,1.0,96,0.02,,---,0.31,14.00,VWS V14.01,2013-01-14 14:55:00,
2013-01-14 10:00:00,57.0,55.9,30.14,SSE,164,0.0,1.0,96,0.02,,---,0.31,16.00,VWS V14.01,2013-01-14 15:00:00,
2013-01-14 10:05:00,56.7,55.6,30.14,SSE,164,0.0,0.0,96,0.01,,---,0.31,19.00,VWS V14.01,2013-01-14 15:05:00,
2013-01-14 10:10:00,56.3,54.9,30.14,SSE,164,0.0,0.0,95,0.01,,---,0.31,30.00,VWS V14.01,2013-01-14 15:10:00,
2013-01-14 10:15:00,55.9,54.5,30.15,NNW,331,0.0,3.0,95,0.01,,---,0.31,32.00,VWS V14.01,2013-01-14 15:15:00,
2013-01-14 10:20:00,55.5,54.1,30.16,NNW,331,0.0,3.0,95,0.01,,---,0.31,25.00,VWS V14.01,2013-01-14 15:20:00,
2013-01-14 10:25:00,55.1,53.7,30.16,NNW,331,3.0,3.0,95,0.01,,---,0.31,25.00,VWS V14.01,2013-01-14 15:25:00,
2013-01-14 10:30:00,54.6,53.2,30.15,NNW,331,0.0,3.0,95,0.02,,---,0.32,39.00,VWS V14.01,2013-01-14 15:30:00,
2013-01-14 10:35:00,54.3,52.9,30.15,NNW,331,0.0,2.0,95,0.01,,---,0.32,40.00,VWS V14.01,2013-01-14 15:35:00,
2013-01-14 10:40:00,54.1,52.7,30.15,NNW,331,0.0,2.0,95,0.01,,---,0.32,35.00,VWS V14.01,2013-01-14 15:40:00,
2013-01-14 10:45:00,53.8,52.4,30.16,NNW,346,0.0,3.0,95,0.01,,---,0.32,37.00,VWS V14.01,2013-01-14 15:45:00,
2013-01-14 10:50:00,53.5,52.1,30.16,NNW,346,0.0,3.0,95,0.01,,---,0.32,35.00,VWS V14.01,2013-01-14 15:50:00,
2013-01-14 10:55:00,53.3,51.9,30.16,NNW,346,0.0,3.0,95,0.01,,---,0.32,35.00,VWS V14.01,2013-01-14 15:55:00,
2013-01-14 11:00:00,53.0,51.6,30.16,NNW,345,0.0,3.0,95,0.01,,---,0.32,35.00,VWS V14.01,2013-01-14 16:00:00,
2013-01-14 11:05:00,52.8,51.4,30.15,NNW,346,0.0,1.0,95,0.01,,---,0.32,37.00,VWS V14.01,2013-01-14 16:05:00,
2013-01-14 11:10:00,52.7,51.3,30.15,NNW,346,0.0,1.0,95,0.01,,---,0.32,26.00,VWS V14.01,2013-01-14 16:10:00,
2013-01-14 11:15:00,52.5,51.1,30.14,NNE,28,3.0,4.0,95,0.02,,---,0.33,54.00,VWS V14.01,2013-01-14 16:15:00,
2013-01-14 11:20:00,52.2,50.8,30.14,NNE,28,0.0,4.0,95,0.03,,---,0.34,54.00,VWS V14.01,2013-01-14 16:20:00,
2013-01-14 11:25:00,52.0,50.6,30.14,NNE,28,0.0,4.0,95,0.03,,---,0.34,30.00,VWS V14.01,2013-01-14 16:25:00,
2013-01-14 11:30:00,51.8,50.4,30.14,NNE,28,0.0,4.0,95,0.03,,---,0.34,33.00,VWS V14.01,2013-01-14 16:30:00,
2013-01-14 11:35:00,51.7,50.3,30.14,NNE,28,0.0,1.0,95,0.03,,---,0.35,42.00,VWS V14.01,2013-01-14 16:35:00,
2013-01-14 11:40:00,51.6,50.2,30.14,NNE,28,0.0,1.0,95,0.03,,---,0.35,54.00,VWS V14.01,2013-01-14 16:40:00,
2013-01-14 11:45:00,51.6,50.2,30.14,NNE,28,0.0,1.0,95,0.03,,---,0.35,51.00,VWS V14.01,2013-01-14 16:45:00,
2013-01-14 11:50:00,51.6,50.5,30.14,NNE,28,0.0,1.0,96,0.03,,---,0.35,40.00,VWS V14.01,2013-01-14 16:50:00,
2013-01-14 11:55:00,51.6,50.5,30.15,NNE,28,0.0,1.0,96,0.03,,---,0.35,23.00,VWS V14.01,2013-01-14 16:55:00,
2013-01-14 12:00:00,51.6,50.5,30.15,NNE,28,0.0,1.0,96,0.04,,---,0.36,30.00,VWS V14.01,2013-01-14 17:00:00,
2013-01-14 12:05:00,51.5,50.4,30.15,NNE,28,0.0,1.0,96,0.05,,---,0.37,23.00,VWS V14.01,2013-01-14 17:05:00,
2013-01-14 12:10:00,51.4,50.0,30.15,NNE,28,0.0,2.0,95,0.07,,---,0.39,33.00,VWS V14.01,2013-01-14 17:10:00,
2013-01-14 12:15:00,51.3,50.2,30.15,NNE,28,0.0,2.0,96,0.08,,---,0.40,40.00,VWS V14.01,2013-01-14 17:15:00,
2013-01-14 12:20:00,51.3,50.2,30.14,NNE,28,0.0,2.0,96,0.09,,---,0.41,42.00,VWS V14.01,2013-01-14 17:20:00,
2013-01-14 12:25:00,51.2,50.1,30.14,NNE,16,0.0,3.0,96,0.10,,---,0.42,28.00,VWS V14.01,2013-01-14 17:25:00,
2013-01-14 12:30:00,51.0,49.9,30.14,NNE,16,0.0,3.0,96,0.11,,---,0.43,30.00,VWS V14.01,2013-01-14 17:30:00,
2013-01-14 12:35:00,50.9,49.8,30.14,NNE,16,0.0,2.0,96,0.09,,---,0.44,35.00,VWS V14.01,2013-01-14 17:35:00,
2013-01-14 12:40:00,50.8,49.7,30.14,NNE,16,3.0,3.0,96,0.09,,---,0.44,39.00,VWS V14.01,2013-01-14 17:40:00,
2013-01-14 12:45:00,50.7,49.6,30.13,NNE,16,0.0,3.0,96,0.10,,---,0.45,44.00,VWS V14.01,2013-01-14 17:45:00,
2013-01-14 12:50:00,50.5,49.4,30.14,NNE,16,0.0,3.0,96,0.11,,---,0.46,44.00,VWS V14.01,2013-01-14 17:50:00,
2013-01-14 12:55:00,50.4,49.3,30.14,NNE,16,2.0,3.0,96,0.11,,---,0.46,54.00,VWS V14.01,2013-01-14 17:55:00,
2013-01-14 13:00:00,50.3,49.2,30.13,NNE,16,1.0,3.0,96,0.12,,---,0.47,54.00,VWS V14.01,2013-01-14 18:00:00,
2013-01-14 13:05:00,50.3,49.2,30.13,NNE,15,0.0,1.0,96,0.11,,---,0.47,56.00,VWS V14.01,2013-01-14 18:05:00,
2013-01-14 13:10:00,50.2,49.1,30.13,NNE,20,1.0,4.0,96,0.12,,---,0.48,67.00,VWS V14.01,2013-01-14 18:10:00,
2013-01-14 13:15:00,50.0,48.9,30.12,NNE,20,3.0,4.0,96,0.12,,---,0.48,63.00,VWS V14.01,2013-01-14 18:15:00,
2013-01-14 13:20:00,49.8,48.7,30.12,NNE,20,0.0,4.0,96,0.13,,---,0.49,62.00,VWS V14.01,2013-01-14 18:20:00,
2013-01-14 13:25:00,49.7,48.6,30.12,NNE,20,0.0,4.0,96,0.13,,---,0.49,72.00,VWS V14.01,2013-01-14 18:25:00,
2013-01-14 13:30:00,49.6,48.5,30.12,NNE,21,0.0,4.0,96,0.14,,---,0.50,69.00,VWS V14.01,2013-01-14 18:30:00,
2013-01-14 13:35:00,49.5,48.4,30.11,NE,41,0.0,3.0,96,0.07,,---,0.50,58.00,VWS V14.01,2013-01-14 18:35:00,
2013-01-14 13:40:00,49.4,48.3,30.12,NE,41,0.0,3.0,96,0.08,,---,0.51,72.00,VWS V14.01,2013-01-14 18:40:00,
2013-01-14 13:45:00,49.4,48.3,30.11,NE,41,0.0,3.0,96,0.08,,---,0.51,77.00,VWS V14.01,2013-01-14 18:45:00,
2013-01-14 13:51:00,49.3,48.2,30.12,NE,41,0.0,3.0,96,0.09,,---,0.52,65.00,VWS V14.01,2013-01-14 18:51:00,
2013-01-14 13:55:00,49.3,48.2,30.12,NE,41,0.0,3.0,96,0.09,,---,0.52,49.00,VWS V14.01,2013-01-14 18:55:00,
2013-01-14 14:00:00,49.3,48.2,30.12,NE,41,0.0,3.0,96,0.09,,---,0.52,44.00,VWS V14.01,2013-01-14 19:00:00,
2013-01-14 14:05:00,49.2,48.1,30.12,NE,41,0.0,1.0,96,0.05,,---,0.52,44.00,VWS V14.01,2013-01-14 19:05:00,
2013-01-14 14:10:00,49.1,48.0,30.12,NE,41,0.0,1.0,96,0.06,,---,0.53,58.00,VWS V14.01,2013-01-14 19:10:00,
2013-01-14 14:15:00,49.0,47.9,30.12,NE,41,2.0,4.0,96,0.06,,---,0.53,60.00,VWS V14.01,2013-01-14 19:15:00,
2013-01-14 14:20:00,48.8,47.7,30.12,NE,41,0.0,4.0,96,0.07,,---,0.54,67.00,VWS V14.01,2013-01-14 19:20:00,
2013-01-14 14:25:00,48.8,47.7,30.11,East,81,3.0,4.0,96,0.07,,---,0.54,60.00,VWS V14.01,2013-01-14 19:25:00,
2013-01-14 14:30:00,48.8,47.7,30.12,East,81,0.0,4.0,96,0.08,,---,0.55,46.00,VWS V14.01,2013-01-14 19:30:00,
2013-01-14 14:36:00,48.7,47.6,30.12,East,81,0.0,1.0,96,0.05,,---,0.55,37.00,VWS V14.01,2013-01-14 19:36:00,
2013-01-14 14:41:00,48.7,47.6,30.12,East,81,0.0,1.0,96,0.06,,---,0.56,39.00,VWS V14.01,2013-01-14 19:41:00,
2013-01-14 14:46:00,48.7,47.6,30.12,East,81,0.0,1.0,96,0.06,,---,0.56,35.00,VWS V14.01,2013-01-14 19:46:00,
2013-01-14 14:51:00,48.7,47.6,30.12,East,81,0.0,1.0,96,0.07,,---,0.57,30.00,VWS V14.01,2013-01-14 19:51:00,
2013-01-14 14:56:00,48.7,47.6,30.12,East,81,0.0,1.0,96,0.07,,---,0.57,35.00,VWS V14.01,2013-01-14 19:56:00,
2013-01-14 15:00:00,48.7,47.6,30.12,East,81,0.0,1.0,96,0.08,,---,0.58,33.00,VWS V14.01,2013-01-14 20:00:00,
2013-01-14 15:01:00,48.7,47.6,30.12,East,81,0.0,1.0,96,0.08,,---,0.58,33.00,VWS V14.01,2013-01-14 20:01:00,
2013-01-14 15:06:00,48.8,47.7,30.12,East,81,0.0,0.0,96,0.07,,---,0.59,32.00,VWS V14.01,2013-01-14 20:06:00,
2013-01-14 15:11:00,48.9,47.8,30.12,East,81,0.0,0.0,96,0.08,,---,0.60,28.00,VWS V14.01,2013-01-14 20:11:00,
2013-01-14 15:16:00,48.9,47.8,30.12,East,81,0.0,0.0,96,0.08,,---,0.60,32.00,VWS V14.01,2013-01-14 20:16:00,
2013-01-14 15:21:00,49.0,47.9,30.12,East,81,0.0,0.0,96,0.09,,---,0.61,33.00,VWS V14.01,2013-01-14 20:21:00,
2013-01-14 15:26:00,49.0,47.9,30.11,East,81,0.0,1.0,96,0.09,,---,0.61,37.00,VWS V14.01,2013-01-14 20:26:00,
2013-01-14 15:30:00,49.0,47.9,30.12,East,81,0.0,1.0,96,0.10,,---,0.62,33.00,VWS V14.01,2013-01-14 20:30:00,
2013-01-14 15:31:00,49.0,47.9,30.12,East,81,0.0,1.0,96,0.10,,---,0.62,33.00,VWS V14.01,2013-01-14 20:31:00,
2013-01-14 15:36:00,49.0,47.9,30.13,East,81,0.0,0.0,96,0.07,,---,0.62,33.00,VWS V14.01,2013-01-14 20:36:00,
2013-01-14 15:41:00,49.0,47.9,30.14,East,81,0.0,2.0,96,0.08,,---,0.63,26.00,VWS V14.01,2013-01-14 20:41:00,
2013-01-14 15:46:00,49.0,47.9,30.15,West,271,2.0,4.0,96,0.08,,---,0.63,16.00,VWS V14.01,2013-01-14 20:46:00,
2013-01-14 15:51:00,48.9,47.8,30.15,West,271,0.0,4.0,96,0.08,,---,0.63,14.00,VWS V14.01,2013-01-14 20:51:00,
2013-01-14 15:56:00,48.9,47.8,30.16,West,271,0.0,4.0,96,0.09,,---,0.64,18.00,VWS V14.01,2013-01-14 20:56:00,
2013-01-14 16:00:00,48.8,47.7,30.16,West,271,0.0,4.0,96,0.10,,---,0.65,26.00,VWS V14.01,2013-01-14 21:00:00,
2013-01-14 16:01:00,48.8,47.7,30.16,West,271,0.0,4.0,96,0.10,,---,0.65,21.00,VWS V14.01,2013-01-14 21:01:00,
2013-01-14 16:06:00,48.8,47.7,30.16,SW,236,3.0,3.0,96,0.08,,---,0.66,30.00,VWS V14.01,2013-01-14 21:06:00,
2013-01-14 16:11:00,48.9,47.8,30.16,SW,236,0.0,3.0,96,0.09,,---,0.67,30.00,VWS V14.01,2013-01-14 21:11:00,
2013-01-14 16:16:00,49.0,47.9,30.16,SW,236,0.0,3.0,96,0.09,,---,0.67,23.00,VWS V14.01,2013-01-14 21:16:00,
2013-01-14 16:21:00,49.1,48.0,30.17,WNW,288,1.0,4.0,96,0.09,,---,0.67,11.00,VWS V14.01,2013-01-14 21:21:00,
2013-01-14 16:26:00,49.1,48.0,30.17,WNW,288,0.0,4.0,96,0.10,,---,0.68,21.00,VWS V14.01,2013-01-14 21:26:00,
2013-01-14 16:30:00,49.0,47.9,30.16,WNW,288,0.0,4.0,96,0.11,,---,0.69,14.00,VWS V14.01,2013-01-14 21:30:00,
2013-01-14 16:31:00,49.0,47.9,30.16,WNW,288,0.0,4.0,96,0.11,,---,0.69,14.00,VWS V14.01,2013-01-14 21:31:00,
2013-01-14 16:36:00,49.1,48.0,30.16,North,350,0.0,2.0,96,0.07,,---,0.69,12.00,VWS V14.01,2013-01-14 21:36:00,
2013-01-14 16:41:00,49.1,48.0,30.16,North,350,0.0,2.0,96,0.08,,---,0.70,19.00,VWS V14.01,2013-01-14 21:41:00,
2013-01-14 16:46:00,49.0,47.9,30.16,North,350,0.0,2.0,96,0.09,,---,0.71,21.00,VWS V14.01,2013-01-14 21:46:00,
2013-01-14 16:51:00,49.0,47.9,30.16,North,350,0.0,2.0,96,0.09,,---,0.71,14.00,VWS V14.01,2013-01-14 21:51:00,
2013-01-14 16:56:00,49.0,47.9,30.16,North,350,0.0,2.0,96,0.10,,---,0.72,11.00,VWS V14.01,2013-01-14 21:56:00,
2013-01-14 17:00:00,48.9,47.8,30.17,North,350,0.0,2.0,96,0.10,,---,0.72,0.00,VWS V14.01,2013-01-14 22:00:00,
2013-01-14 17:01:00,48.9,47.8,30.17,North,350,0.0,2.0,96,0.10,,---,0.72,0.00,VWS V14.01,2013-01-14 22:01:00,
2013-01-14 17:06:00,48.9,47.8,30.16,North,350,0.0,3.0,96,0.07,,---,0.72,0.00,VWS V14.01,2013-01-14 22:06:00,
2013-01-14 17:11:00,48.8,47.7,30.16,North,350,0.0,3.0,96,0.08,,---,0.73,0.00,VWS V14.01,2013-01-14 22:11:00,
2013-01-14 17:16:00,48.8,47.7,30.16,North,350,0.0,3.0,96,0.09,,---,0.74,0.00,VWS V14.01,2013-01-14 22:16:00,
2013-01-14 17:21:00,48.8,48.0,30.16,North,350,0.0,3.0,97,0.10,,---,0.75,0.00,VWS V14.01,2013-01-14 22:21:00,
2013-01-14 17:26:00,48.8,48.0,30.16,North,350,0.0,3.0,97,0.10,,---,0.75,0.00,VWS V14.01,2013-01-14 22:26:00,
2013-01-14 17:30:00,48.7,47.9,30.16,North,350,0.0,3.0,97,0.11,,---,0.76,0.00,VWS V14.01,2013-01-14 22:30:00,
2013-01-14 17:31:00,48.8,48.0,30.16,North,350,0.0,3.0,97,0.11,,---,0.76,0.00,VWS V14.01,2013-01-14 22:31:00,
2013-01-14 17:36:00,48.7,47.9,30.16,North,350,0.0,0.0,97,0.07,,---,0.76,0.00,VWS V14.01,2013-01-14 22:36:00,
2013-01-14 17:41:00,48.7,47.6,30.16,North,350,0.0,1.0,96,0.08,,---,0.77,0.00,VWS V14.01,2013-01-14 22:41:00,
2013-01-14 17:46:00,48.7,47.6,30.18,North,350,0.0,1.0,96,0.08,,---,0.77,0.00,VWS V14.01,2013-01-14 22:46:00,
2013-01-14 17:51:00,48.7,47.6,30.18,North,350,0.0,1.0,96,0.08,,---,0.77,0.00,VWS V14.01,2013-01-14 22:51:00,
2013-01-14 17:56:00,48.7,47.6,30.18,North,350,0.0,1.0,96,0.09,,---,0.78,0.00,VWS V14.01,2013-01-14 22:56:00,
2013-01-14 18:00:00,48.7,47.6,30.19,North,350,0.0,1.0,96,0.10,,---,0.79,0.00,VWS V14.01,2013-01-14 23:00:00,
2013-01-14 18:01:00,48.7,47.6,30.19,North,350,0.0,1.0,96,0.10,,---,0.79,0.00,VWS V14.01,2013-01-14 23:01:00,
2013-01-14 18:06:00,48.7,47.6,30.18,North,350,0.0,0.0,96,0.08,,---,0.80,0.00,VWS V14.01,2013-01-14 23:06:00,
2013-01-14 18:11:00,48.7,47.6,30.17,North,350,0.0,1.0,96,0.09,,---,0.81,0.00,VWS V14.01,2013-01-14 23:11:00,
2013-01-14 18:16:00,48.7,47.9,30.17,North,350,0.0,1.0,97,0.10,,---,0.82,0.00,VWS V14.01,2013-01-14 23:16:00,
2013-01-14 18:21:00,48.7,47.9,30.17,North,350,0.0,2.0,97,0.10,,---,0.82,0.00,VWS V14.01,2013-01-14 23:21:00,
2013-01-14 18:26:00,48.7,47.6,30.17,North,350,0.0,2.0,96,0.11,,---,0.83,0.00,VWS V14.01,2013-01-14 23:26:00,
2013-01-14 18:30:00,48.7,47.6,30.19,North,350,0.0,2.0,96,0.11,,---,0.83,0.00,VWS V14.01,2013-01-14 23:30:00,
2013-01-14 18:31:00,48.7,47.6,30.19,North,350,0.0,2.0,96,0.11,,---,0.83,0.00,VWS V14.01,2013-01-14 23:31:00,
2013-01-14 18:36:00,48.6,47.5,30.19,North,350,0.0,0.0,96,0.09,,---,0.85,0.00,VWS V14.01,2013-01-14 23:36:00,
2013-01-14 18:41:00,48.6,47.5,30.19,North,350,0.0,0.0,96,0.13,,---,0.89,0.00,VWS V14.01,2013-01-14 23:41:00,
2013-01-14 18:46:00,48.6,47.8,30.19,North,350,0.0,0.0,97,0.14,,---,0.90,0.00,VWS V14.01,2013-01-14 23:46:00,
2013-01-14 18:51:00,48.6,47.8,30.19,North,350,0.0,0.0,97,0.14,,---,0.90,0.00,VWS V14.01,2013-01-14 23:51:00,
2013-01-14 18:56:00,48.6,47.8,30.19,North,350,0.0,1.0,97,0.15,,---,0.91,0.00,VWS V14.01,2013-01-14 23:56:00,
2013-01-14 19:00:00,48.6,47.8,30.19,North,350,0.0,1.0,97,0.15,,---,0.91,0.00,VWS V14.01,2013-01-15 00:00:00,
2013-01-14 19:02:00,48.6,47.8,30.19,North,350,0.0,1.0,97,0.15,,---,0.91,0.00,VWS V14.01,2013-01-15 00:02:00,
2013-01-14 19:07:00,48.6,47.8,30.19,North,350,0.0,0.0,97,0.13,,---,0.92,0.00,VWS V14.01,2013-01-15 00:07:00,
2013-01-14 19:12:00,48.6,47.8,30.19,North,350,0.0,0.0,97,0.13,,---,0.92,0.00,VWS V14.01,2013-01-15 00:12:00,
2013-01-14 19:17:00,48.6,47.8,30.18,North,350,0.0,1.0,97,0.14,,---,0.93,0.00,VWS V14.01,2013-01-15 00:17:00,
2013-01-14 19:22:00,48.5,47.7,30.18,North,350,2.0,2.0,97,0.14,,---,0.93,0.00,VWS V14.01,2013-01-15 00:22:00,
2013-01-14 19:27:00,48.5,47.7,30.18,North,350,0.0,2.0,97,0.15,,---,0.94,0.00,VWS V14.01,2013-01-15 00:27:00,
2013-01-14 19:30:00,48.5,47.7,30.18,North,350,0.0,2.0,97,0.15,,---,0.94,0.00,VWS V14.01,2013-01-15 00:30:00,
2013-01-14 19:32:00,48.5,47.7,30.18,North,350,0.0,2.0,97,0.15,,---,0.94,0.00,VWS V14.01,2013-01-15 00:32:00,
2013-01-14 19:37:00,48.5,47.7,30.19,North,350,0.0,0.0,97,0.12,,---,0.95,0.00,VWS V14.01,2013-01-15 00:37:00,
2013-01-14 19:42:00,48.5,47.7,30.18,NNE,25,3.0,4.0,97,0.12,,---,0.95,0.00,VWS V14.01,2013-01-15 00:42:00,
2013-01-14 19:47:00,48.5,47.7,30.18,NNE,30,5.0,6.0,97,0.12,,---,0.95,0.00,VWS V14.01,2013-01-15 00:47:00,
2013-01-14 19:52:00,48.4,47.6,30.18,NNE,30,0.0,6.0,97,0.13,,---,0.96,0.00,VWS V14.01,2013-01-15 00:52:00,
2013-01-14 19:57:00,48.3,47.5,30.17,NNE,28,4.0,6.0,97,0.13,,---,0.96,0.00,VWS V14.01,2013-01-15 00:57:00,
2013-01-14 20:00:00,48.2,47.4,30.17,NE,39,3.0,6.0,97,0.14,,---,0.97,0.00,VWS V14.01,2013-01-15 01:00:00,
2013-01-14 20:02:00,48.2,47.4,30.17,NE,38,3.0,3.0,97,0.06,,---,0.97,0.00,VWS V14.01,2013-01-15 01:02:00,
2013-01-14 20:07:00,48.1,47.0,30.18,NE,38,0.0,3.0,96,0.06,,---,0.97,0.00,VWS V14.01,2013-01-15 01:07:00,
2013-01-14 20:12:00,48.0,46.9,30.19,NE,38,0.0,3.0,96,0.06,,---,0.97,0.00,VWS V14.01,2013-01-15 01:12:00,
2013-01-14 20:17:00,47.8,47.0,30.19,NE,38,0.0,3.0,97,0.06,,---,0.97,0.00,VWS V14.01,2013-01-15 01:17:00,
2013-01-14 20:22:00,47.6,46.8,30.19,NE,38,0.0,3.0,97,0.07,,---,0.98,0.00,VWS V14.01,2013-01-15 01:22:00,
2013-01-14 20:27:00,47.6,46.8,30.19,NNW,343,0.0,3.0,97,0.07,,---,0.98,0.00,VWS V14.01,2013-01-15 01:27:00,
2013-01-14 20:30:00,47.5,46.4,30.18,NNW,347,0.0,3.0,96,0.07,,---,0.98,0.00,VWS V14.01,2013-01-15 01:30:00,
2013-01-14 20:32:00,47.5,46.4,30.19,NNW,347,0.0,0.0,96,0.04,,---,0.98,0.00,VWS V14.01,2013-01-15 01:32:00,
2013-01-14 20:37:00,47.4,46.3,30.20,NNW,346,0.0,2.0,96,0.05,,---,0.99,0.00,VWS V14.01,2013-01-15 01:37:00,
2013-01-14 20:42:00,47.3,46.2,30.20,NNW,327,1.0,4.0,96,0.06,,---,1.00,0.00,VWS V14.01,2013-01-15 01:42:00,
2013-01-14 20:47:00,47.2,46.4,30.21,NW,325,1.0,4.0,97,0.07,,---,1.01,0.00,VWS V14.01,2013-01-15 01:47:00,
2013-01-14 20:52:00,47.0,46.2,30.21,NW,325,1.0,4.0,97,0.09,,---,1.03,0.00,VWS V14.01,2013-01-15 01:52:00,
2013-01-14 20:57:00,46.9,45.8,30.21,NW,325,0.0,4.0,96,0.11,,---,1.05,0.00,VWS V14.01,2013-01-15 01:57:00,
2013-01-14 21:00:00,46.8,45.7,30.22,NNW,331,2.0,4.0,96,0.13,,---,1.07,0.00,VWS V14.01,2013-01-15 02:00:00,
2013-01-14 21:02:00,46.8,45.7,30.22,NNW,331,3.0,3.0,96,0.10,,---,1.07,0.00,VWS V14.01,2013-01-15 02:02:00,
2013-01-14 21:07:00,46.7,45.6,30.21,NNW,331,0.0,3.0,96,0.11,,---,1.08,0.00,VWS V14.01,2013-01-15 02:07:00,
2013-01-14 21:12:00,46.6,45.5,30.22,NNW,339,0.0,3.0,96,0.12,,---,1.09,0.00,VWS V14.01,2013-01-15 02:12:00,
2013-01-14 21:17:00,46.5,45.7,30.21,NNW,341,0.0,3.0,97,0.12,,---,1.09,0.00,VWS V14.01,2013-01-15 02:17:00,
2013-01-14 21:22:00,46.5,45.7,30.21,North,350,2.0,3.0,97,0.13,,---,1.10,0.00,VWS V14.01,2013-01-15 02:22:00,
2013-01-14 21:27:00,46.4,45.6,30.21,North,5,0.0,3.0,97,0.13,,---,1.10,0.00,VWS V14.01,2013-01-15 02:27:00,
2013-01-14 21:30:00,46.4,45.6,30.21,NNE,17,1.0,3.0,97,0.13,,---,1.10,0.00,VWS V14.01,2013-01-15 02:30:00,
2013-01-14 21:32:00,46.4,45.6,30.21,NNE,17,0.0,1.0,97,0.12,,---,1.10,0.00,VWS V14.01,2013-01-15 02:32:00,
2013-01-14 21:37:00,46.4,45.6,30.21,NNE,17,0.0,5.0,97,0.13,,---,1.11,0.00,VWS V14.01,2013-01-15 02:37:00,
2013-01-14 21:42:00,46.4,45.3,30.21,NNE,17,0.0,5.0,96,0.13,,---,1.11,0.00,VWS V14.01,2013-01-15 02:42:00,
2013-01-14 21:47:00,46.3,45.5,30.21,NNE,17,0.0,5.0,97,0.13,,---,1.11,0.00,VWS V14.01,2013-01-15 02:47:00,
2013-01-14 21:52:00,46.3,45.5,30.22,North,355,2.0,5.0,97,0.13,,---,1.11,0.00,VWS V14.01,2013-01-15 02:52:00,
2013-01-14 21:57:00,46.3,45.5,30.23,West,281,1.0,5.0,97,0.13,,---,1.11,0.00,VWS V14.01,2013-01-15 02:57:00,
2013-01-14 22:00:00,46.3,45.5,30.23,NNW,338,1.0,5.0,97,0.13,,---,1.11,0.00,VWS V14.01,2013-01-15 03:00:00,
2013-01-14 22:02:00,46.3,45.5,30.23,NNW,338,0.0,1.0,97,0.04,,---,1.11,0.00,VWS V14.01,2013-01-15 03:02:00,
2013-01-14 22:07:00,46.1,45.3,30.23,NW,314,1.0,6.0,97,0.05,,---,1.12,0.00,VWS V14.01,2013-01-15 03:07:00,
2013-01-14 22:12:00,45.9,45.1,30.24,NW,304,0.0,6.0,97,0.06,,---,1.13,0.00,VWS V14.01,2013-01-15 03:12:00,
2013-01-14 22:17:00,45.6,44.5,30.25,NW,304,0.0,6.0,96,0.06,,---,1.13,0.00,VWS V14.01,2013-01-15 03:17:00,
2013-01-14 22:22:00,45.4,44.3,30.25,NNW,348,0.0,6.0,96,0.08,,---,1.15,0.00,VWS V14.01,2013-01-15 03:22:00,
2013-01-14 22:27:00,45.1,44.0,30.24,NNW,348,1.0,6.0,96,0.10,,---,1.17,0.00,VWS V14.01,2013-01-15 03:27:00,
2013-01-14 22:30:00,44.9,43.8,30.24,North,355,1.0,6.0,96,0.11,,---,1.18,0.00,VWS V14.01,2013-01-15 03:30:00,
2013-01-14 22:32:00,44.8,43.7,30.23,North,355,0.0,1.0,96,0.08,,---,1.18,0.00,VWS V14.01,2013-01-15 03:32:00,
2013-01-14 22:37:00,44.6,43.5,30.24,North,355,0.0,4.0,96,0.08,,---,1.18,0.00,VWS V14.01,2013-01-15 03:37:00,
2013-01-14 22:42:00,44.4,43.3,30.24,NNW,344,0.0,4.0,96,0.08,,---,1.18,0.00,VWS V14.01,2013-01-15 03:42:00,
2013-01-14 22:47:00,44.3,43.2,30.25,NNW,344,0.0,4.0,96,0.08,,---,1.18,0.00,VWS V14.01,2013-01-15 03:47:00,
2013-01-14 22:52:00,44.2,43.1,30.25,NNW,344,0.0,4.0,96,0.08,,---,1.18,0.00,VWS V14.01,2013-01-15 03:52:00,
2013-01-14 22:57:00,44.2,43.1,30.25,NNW,344,0.0,4.0,96,0.08,,---,1.18,0.00,VWS V14.01,2013-01-15 03:57:00,
2013-01-14 23:00:00,44.1,43.0,30.25,NNW,344,0.0,4.0,96,0.08,,---,1.18,0.00,VWS V14.01,2013-01-15 04:00:00,
2013-01-14 23:02:00,44.1,43.0,30.25,NNW,344,0.0,0.0,96,0.07,,---,1.18,0.00,VWS V14.01,2013-01-15 04:02:00,
2013-01-14 23:07:00,44.1,43.0,30.25,NNW,344,3.0,4.0,96,0.07,,---,1.18,0.00,VWS V14.01,2013-01-15 04:07:00,
2013-01-14 23:12:00,44.0,42.9,30.26,WNW,301,3.0,4.0,96,0.07,,---,1.18,0.00,VWS V14.01,2013-01-15 04:12:00,
2013-01-14 23:17:00,43.8,42.7,30.25,North,360,0.0,5.0,96,0.07,,---,1.18,0.00,VWS V14.01,2013-01-15 04:17:00,
2013-01-14 23:22:00,43.5,42.4,30.24,North,360,3.0,5.0,96,0.07,,---,1.18,0.00,VWS V14.01,2013-01-15 04:22:00,
2013-01-14 23:27:00,43.3,42.2,30.24,North,11,0.0,5.0,96,0.07,,---,1.18,0.00,VWS V14.01,2013-01-15 04:27:00,
2013-01-14 23:30:00,43.2,42.1,30.24,North,11,1.0,5.0,96,0.07,,---,1.18,0.00,VWS V14.01,2013-01-15 04:30:00,
2013-01-14 23:32:00,43.2,42.1,30.24,North,11,0.0,3.0,96,0.00,,---,1.18,0.00,VWS V14.01,2013-01-15 04:32:00,
2013-01-14 23:37:00,43.1,42.0,30.23,North,11,0.0,3.0,96,0.00,,---,1.18,0.00,VWS V14.01,2013-01-15 04:37:00,
2013-01-14 23:42:00,42.9,41.8,30.23,North,11,0.0,3.0,96,0.01,,---,1.19,0.00,VWS V14.01,2013-01-15 04:42:00,
2013-01-14 23:47:00,42.9,41.8,30.23,North,11,0.0,3.0,96,0.05,,---,1.23,0.00,VWS V14.01,2013-01-15 04:47:00,
2013-01-14 23:52:00,42.8,41.7,30.23,NNE,12,0.0,3.0,96,0.07,,---,1.25,0.00,VWS V14.01,2013-01-15 04:52:00,
2013-01-14 23:57:00,42.8,41.7,30.24,NNE,12,0.0,3.0,96,0.09,,---,1.27,0.00,VWS V14.01,2013-01-15 04:57:00,